User: anonymous   Login
Location: Brabourne
(51.1333°N, 1.0000°E)
Time: 07:11:59
(UTC+00:00)
Language:

IRIDIUM 104 - Orbit

View from above orbital plane
View from above orbital plane
View from above satellite
View from above satellite

Ground track
Ground track

The orbit data is extracted from the following two-line orbital elements,

1 41922U 17003F   21266.04343418  .00000023  00000-0  12563-5 0  9990
2 41922  86.3917  90.6166 0001902  96.3727 263.7685 14.34217576245578
Epoch (UTC): 23 September 2021 01:02:32
Eccentricity: 0.0001902
inclination: 86.3917°
perigee height: 776 km
apogee height: 779 km
right ascension of ascending node: 90.6166°
argument of perigee: 96.3727°
revolutions per day: 14.34217576
mean anomaly at epoch: 263.7685°
orbit number at epoch: 24557

The dashed part of the orbit path shows where the satellite is in the earth's shadow,  

DLR